Temp
-5 -5 -5 -5 -5 -5 -5 -5 -5 -5 -5 -5 -5 -5 -5 -5 -6 -5 -6 -6 -7 -6 -5 -5 -5 -5 -4 -4 -4 -4 -5 -5 -4 -4 -5 -5 -4 -5 -5 -4 -4 -5 -5 -4 -5
-5 -5 -5 -5 -5 -5 -5 -5 -5 -5 -5 -5 -6 -6 -6 -5 -6 -5 -6 -6 -6 -6 -6 -5 -5 -5 -4 -5 -4 -4 -5 -4 -5 -4 -4 -4 -4 -5 -5 -4 -5 -4 -5 -5 -5
-4 -5 -5 -5 -5 -4 -4 -4 -4 -4 -5 -5 -5 -6 -6 -6 -6 -6 -6 -6 -6 -6 -6 -5 -5 -6 -6 -4 -4 -4 -5 -5 -5 -5 -4 -5 -6 -5 -5 -6 -5 -5 -5 -5 -4
-4 -4 -4 -4 -4 -4 -4 -4 -4 -4 -4 -5 -5 -6 -6 -6 -5 -6 -6 -6 -7 -6 -6 -6 -6 -5 -6 -5 -5 -5 -5 -5 -5 -5 -4 -6 -6 -4 -4 -4 -5 -5 -4 -4 -4
-4 -4 -4 -4 -4 -4 -4 -4 -4 -4 -4 -5 -6 -6 -6 -6 -6 -6 -6 -6 -6 -7 -6 -6 -6 -5 -6 -6 -5 -5 -4 -4 -5 -5 -5 -5 -5 -5 -4 -4 -4 -4 -4 -4 -5
-5 -5 -4 -4 -4 -4 -4 -4 -4 -5 -5 -5 -5 -6 -6 -6 -6 -6 -6 -6 -6 -6 -6 -6 -6 -5 -5 -6 -6 -5 -3 -4 -4 -5 -5 -4 -5 -5 -4 -4 -4 -4 -4 -4 -4
-5 -5 -5 -5 -4 -4 -4 -4 -4 -5 -6 -6 -6 -6 -6 -6 -6 -7 -6 -6 -7 -6 -6 -7 -6 -7 -5 -5 -6 -6 -6 -4 -3 -2 -6 -4 -5 -5 -6 -6 -4 -3 -3 -3 -4
-5 -5 -5 -5 -5 -5 -5 -5 -5 -6 -6 -6 -6 -6 -6 -7 -7 -7 -7 -6 -7 -7 -6 -6 -6 -6 -6 -5 -6 -6 -7 -6 -5 -3 -3 -5 -6 -6 -6 -6 -4 -4 -3 -3 -3
-5 -5 -5 -5 -5 -5 -5 -5 -5 -6 -6 -7 -7 -6 -6 -7 -7 -7 -7 -7 -7 -7 -7 -6 -6 -6 -7 -5 -6 -6 -7 -7 -6 -5 -5 -5 -6 -5 -6 -7 -6 -4 -4 -3 -3
-6 -5 -5 -5 -5 -5 -5 -5 -5 -6 -7 -7 -7 -7 -7 -8 -8 -7 -7 -7 -7 -7 -7 -6 -6 -6 -7 -6 -5 -6 -7 -7 -7 -6 -6 -5 -5 -5 -7 -7 -6 -4 -4 -3 -3
-6 -6 -6 -5 -5 -6 -6 -6 -6 -6 -7 -7 -8 -8 -8 -8 -8 -8 -8 -7 -7 -7 -7 -7 -6 -6 -7 -7 -6 -6 -7 -7 -7 -7 -6 -4 -4 -6 -6 -6 -6 -5 -4 -4 -3
-6 -6 -6 -6 -6 -6 -6 -6 -6 -7 -8 -8 -8 -8 -8 -8 -8 -8 -8 -8 -8 -7 -7 -7 -7 -7 -7 -7 -7 -7 -8 -8 -8 -7 -5 -5 -5 -5 -4 -5 -6 -5 -4 -4 -3
-7 -7 -7 -7 -6 -6 -6 -7 -7 -8 -8 -8 -8 -8 -8 -9 -9 -9 -8 -8 -8 -8 -7 -7 -7 -7 -7 -7 -7 -7 -8 -8 -7 -8 -7 -6 -4 -4 -4 -4 -5 -5 -4 -4 -4
-7 -7 -8 -7 -7 -7 -7 -7 -8 -8 -8 -9 -9 -8 -9 -9 -9 -9 -9 -8 -8 -8 -8 -7 -7 -7 -7 -7 -7 -7 -8 -8 -7 -8 -7 -6 -6 -4 -4 -4 -4 -5 -4 -5 -5
-8 -8 -8 -9 -8 -8 -8 -8 -8 -9 -9 -9 -9 -9 -9 -9 -9 -9 -9 -9 -9 -8 -8 -7 -7 -8 -7 -7 -7 -7 -8 -8 -8 -8 -7 -6 -6 -5 -4 -3 -4 -5 -4 -4 -5
-8 -9 -9 -9 -9 -9 -9 -9 -9 -10 -10 -9 -9 -10 -10 -10 -10 -10 -10 -9 -9 -9 -8 -8 -7 -7 -7 -8 -8 -8 -8 -8 -8 -9 -7 -7 -6 -6 -5 -4 -5 -5 -4 -5 -5
-9 -10 -10 -10 -10 -10 -10 -10 -10 -10 -10 -10 -10 -11 -11 -11 -11 -11 -10 -10 -10 -9 -8 -9 -8 -7 -7 -8 -8 -8 -9 -8 -9 -8 -8 -7 -7 -5 -6 -5 -5 -6 -5 -5 -6
-10 -10 -10 -11 -10 -11 -11 -11 -11 -10 -11 -11 -11 -11 -11 -11 -11 -11 -11 -11 -10 -10 -9 -9 -9 -9 -8 -8 -8 -8 -8 -8 -8 -8 -7 -7 -7 -6 -5 -5 -6 -6 -5 -5 -5
-10 -10 -11 -11 -11 -12 -11 -12 -11 -11 -11 -12 -12 -12 -11 -12 -13 -12 -12 -12 -11 -10 -10 -10 -10 -10 -9 -8 -9 -9 -9 -8 -8 -8 -9 -8 -7 -6 -6 -6 -6 -5 -5 -5 -7
-10 -10 -11 -12 -13 -13 -12 -12 -12 -12 -12 -12 -13 -13 -13 -13 -13 -13 -13 -12 -12 -12 -12 -11 -11 -10 -10 -10 -11 -10 -9 -9 -8 -8 -8 -8 -8 -6 -8 -7 -6 -5 -5 -5 -6
-12 -11 -12 -12 -14 -13 -12 -12 -13 -12 -13 -13 -13 -14 -14 -14 -15 -15 -15 -15 -14 -14 -13 -12 -11 -12 -12 -12 -12 -11 -10 -9 -9 -8 -8 -9 -8 -7 -7 -7 -6 -6 -7 -6 -5
-12 -12 -12 -12 -13 -13 -13 -13 -13 -13 -13 -14 -14 -14 -14 -15 -15 -15 -15 -15 -15 -14 -14 -13 -12 -13 -13 -12 -12 -12 -12 -11 -9 -9 -8 -9 -8 -8 -7 -7 -7 -7 -7 -6 -6
-12 -12 -11 -12 -13 -14 -14 -14 -14 -14 -14 -14 -15 -15 -14 -15 -14 -15 -15 -15 -15 -15 -15 -14 -13 -13 -13 -13 -12 -12 -12 -12 -10 -9 -9 -9 -8 -8 -8 -8 -8 -7 -7 -6 -5
-11 -12 -12 -12 -14 -14 -14 -14 -14 -14 -14 -14 -15 -15 -15 -15 -15 -15 -15 -16 -16 -16 -15 -15 -14 -13 -13 -13 -13 -13 -13 -12 -11 -10 -9 -8 -8 -8 -9 -8 -8 -7 -7 -7 -6
-11 -12 -12 -13 -14 -14 -14 -14 -15 -15 -15 -15 -16 -15 -15 -15 -15 -16 -16 -16 -15 -16 -15 -15 -15 -14 -14 -13 -13 -13 -13 -12 -12 -12 -10 -9 -9 -9 -9 -8 -8 -7 -7 -7 -6
-12 -12 -12 -13 -13 -14 -15 -15 -16 -16 -15 -15 -15 -16 -16 -16 -16 -16 -16 -16 -16 -16 -15 -15 -15 -15 -15 -14 -13 -13 -13 -13 -12 -12 -11 -10 -10 -9 -9 -9 -8 -7 -7 -7 -6
-12 -12 -12 -13 -14 -15 -15 -16 -16 -16 -15 -16 -16 -16 -16 -16 -16 -16 -16 -16 -16 -16 -16 -15 -15 -15 -15 -14 -14 -14 -14 -13 -13 -12 -12 -11 -10 -10 -9 -9 -8 -7 -7 -7 -6
Height
5879 5877 5876 5876 5875 5873 5871 5870 5869 5869 5868 5869 5871 5873 5873 5874 5875 5875 5877 5879 5880 5884 5884 5890 5892 5894 5895 5896 5895 5896 5898 5899 5899 5900 5902 5898 5898 5896 5900 5903 5903 5903 5903 5904 5905
5876 5875 5873 5872 5871 5869 5868 5866 5864 5864 5865 5865 5866 5868 5870 5871 5872 5874 5876 5877 5878 5883 5882 5887 5891 5894 5895 5896 5896 5895 5900 5901 5901 5900 5903 5900 5901 5899 5900 5903 5906 5907 5906 5906 5907
5873 5871 5870 5868 5866 5864 5863 5861 5860 5859 5859 5861 5862 5864 5866 5867 5869 5871 5874 5875 5877 5879 5882 5886 5891 5894 5894 5896 5897 5896 5900 5900 5900 5903 5904 5904 5904 5903 5901 5902 5905 5907 5909 5908 5909
5871 5869 5867 5865 5863 5861 5858 5857 5856 5856 5855 5855 5857 5859 5862 5863 5866 5868 5870 5873 5875 5876 5880 5884 5889 5891 5893 5893 5896 5897 5899 5898 5899 5901 5904 5906 5906 5905 5905 5904 5907 5910 5909 5911 5911
5868 5866 5864 5862 5860 5858 5855 5853 5851 5851 5850 5850 5851 5853 5856 5858 5861 5864 5867 5869 5872 5874 5878 5881 5884 5887 5890 5892 5895 5896 5896 5897 5896 5900 5904 5910 5908 5906 5907 5906 5907 5910 5910 5910 5912
5864 5862 5860 5858 5856 5854 5852 5850 5848 5847 5846 5845 5845 5847 5849 5852 5857 5859 5862 5865 5868 5871 5875 5879 5878 5883 5887 5891 5893 5892 5896 5896 5897 5899 5899 5906 5906 5907 5909 5908 5908 5910 5912 5911 5912
5860 5858 5856 5854 5852 5849 5848 5846 5843 5842 5841 5840 5839 5840 5843 5848 5852 5855 5857 5860 5864 5867 5870 5872 5874 5877 5884 5890 5891 5895 5898 5900 5899 5901 5901 5903 5907 5907 5907 5908 5911 5910 5912 5913 5912
5857 5854 5851 5849 5847 5845 5842 5841 5839 5837 5836 5836 5835 5835 5836 5841 5844 5846 5851 5855 5859 5862 5864 5867 5871 5875 5882 5885 5891 5894 5898 5899 5898 5901 5903 5907 5905 5905 5907 5910 5912 5913 5911 5912 5913
5852 5849 5846 5844 5842 5840 5838 5836 5833 5832 5831 5830 5830 5830 5831 5835 5839 5842 5845 5850 5854 5857 5860 5863 5869 5872 5876 5881 5887 5893 5898 5897 5900 5900 5902 5906 5905 5904 5908 5911 5912 5913 5911 5911 5912
5846 5843 5841 5839 5836 5835 5832 5831 5828 5827 5826 5824 5824 5827 5827 5828 5833 5835 5839 5845 5848 5852 5856 5860 5865 5868 5872 5880 5885 5891 5893 5895 5895 5897 5898 5901 5905 5905 5907 5909 5910 5911 5912 5912 5912
5839 5836 5835 5833 5830 5829 5827 5826 5825 5823 5821 5820 5820 5820 5820 5821 5824 5828 5835 5838 5843 5847 5852 5855 5861 5866 5871 5879 5880 5886 5890 5892 5893 5894 5893 5900 5899 5901 5904 5907 5909 5911 5912 5912 5913
5831 5828 5827 5825 5824 5822 5821 5820 5819 5818 5817 5815 5815 5815 5816 5817 5820 5824 5828 5834 5838 5841 5846 5852 5858 5862 5864 5870 5876 5880 5885 5888 5891 5889 5892 5896 5897 5897 5902 5906 5908 5911 5912 5913 5913
5822 5820 5818 5816 5814 5814 5813 5814 5812 5811 5812 5812 5811 5811 5812 5815 5816 5819 5822 5827 5832 5835 5840 5847 5855 5855 5859 5865 5870 5874 5879 5885 5885 5882 5888 5891 5893 5895 5899 5903 5907 5910 5912 5913 5913
5816 5812 5808 5808 5807 5805 5805 5805 5806 5805 5806 5807 5806 5805 5808 5809 5812 5813 5816 5821 5825 5830 5834 5841 5846 5849 5854 5859 5865 5871 5876 5880 5880 5877 5884 5886 5890 5896 5899 5901 5906 5909 5909 5911 5912
5808 5804 5800 5799 5798 5798 5798 5796 5798 5800 5800 5801 5800 5800 5802 5805 5807 5808 5810 5814 5818 5822 5828 5835 5838 5844 5849 5856 5859 5868 5869 5872 5871 5873 5877 5881 5882 5891 5894 5899 5905 5905 5907 5909 5911
5799 5795 5793 5792 5792 5792 5790 5789 5791 5795 5793 5794 5795 5796 5797 5797 5799 5803 5805 5808 5811 5816 5821 5825 5831 5838 5844 5849 5852 5862 5862 5865 5865 5868 5870 5876 5880 5884 5890 5897 5899 5903 5906 5907 5910
5791 5789 5786 5785 5785 5785 5784 5783 5786 5786 5788 5791 5793 5791 5790 5792 5793 5797 5799 5802 5805 5810 5815 5818 5824 5830 5837 5842 5847 5852 5855 5859 5862 5862 5866 5874 5874 5883 5889 5892 5898 5900 5902 5904 5907
5783 5782 5781 5778 5778 5778 5778 5779 5780 5780 5782 5785 5788 5785 5786 5787 5788 5790 5793 5796 5799 5803 5807 5812 5818 5822 5829 5835 5840 5847 5850 5852 5856 5860 5864 5870 5868 5888 5887 5889 5891 5896 5900 5900 5902
5779 5776 5775 5775 5772 5772 5773 5774 5776 5776 5777 5778 5780 5781 5783 5783 5785 5786 5788 5791 5793 5798 5801 5805 5811 5814 5820 5828 5833 5838 5843 5851 5852 5854 5859 5863 5868 5881 5879 5882 5889 5895 5897 5898 5899
5772 5768 5767 5767 5765 5767 5767 5768 5770 5772 5773 5773 5774 5775 5777 5780 5782 5782 5783 5786 5789 5792 5795 5798 5805 5808 5812 5819 5824 5829 5837 5841 5844 5848 5852 5857 5864 5875 5877 5880 5885 5890 5895 5895 5899
5761 5758 5760 5759 5760 5761 5762 5763 5766 5769 5770 5771 5770 5771 5773 5775 5777 5778 5779 5781 5783 5786 5788 5792 5797 5803 5807 5812 5818 5823 5828 5833 5838 5843 5847 5852 5861 5869 5875 5878 5883 5885 5889 5893 5896
5755 5755 5754 5756 5757 5757 5757 5758 5763 5765 5765 5765 5766 5767 5768 5769 5771 5774 5774 5775 5777 5780 5783 5786 5790 5794 5801 5806 5811 5815 5819 5824 5829 5836 5841 5846 5858 5863 5869 5875 5879 5882 5887 5890 5893
5756 5754 5753 5752 5752 5751 5753 5751 5755 5760 5760 5760 5760 5762 5763 5764 5764 5766 5768 5770 5772 5775 5778 5783 5786 5791 5795 5801 5805 5808 5812 5817 5823 5828 5834 5841 5852 5859 5862 5866 5871 5876 5881 5885 5890
5752 5750 5750 5747 5747 5746 5747 5747 5748 5753 5754 5754 5753 5754 5755 5757 5757 5758 5761 5762 5766 5769 5773 5777 5782 5786 5790 5793 5797 5803 5807 5811 5817 5822 5828 5834 5848 5854 5854 5858 5864 5869 5872 5878 5883
5748 5746 5745 5743 5742 5742 5740 5742 5745 5747 5747 5747 5747 5746 5747 5748 5749 5751 5753 5755 5758 5762 5766 5769 5773 5777 5782 5785 5790 5796 5800 5803 5808 5814 5822 5832 5839 5846 5847 5852 5857 5863 5868 5870 5874
5741 5741 5738 5737 5736 5737 5735 5738 5739 5740 5740 5740 5740 5740 5740 5741 5742 5743 5745 5746 5749 5753 5757 5761 5764 5768 5772 5776 5783 5789 5790 5794 5801 5809 5816 5825 5832 5838 5842 5846 5852 5857 5861 5865 5870
5735 5732 5732 5731 5731 5733 5733 5732 5732 5732 5733 5733 5733 5734 5734 5736 5736 5736 5737 5739 5741 5744 5747 5751 5756 5760 5764 5768 5773 5778 5781 5788 5795 5803 5809 5818 5825 5829 5833 5839 5842 5849 5854 5859 5863
Wind_Speed
14 14 15 14 14 15 17 19 21 20 19 16 14 13 13 15 13 13 13 15 16 12 16 19 15 13 10 13 17 12 9 7 7 9 13 14 9 19 15 11 13 14 12 14 15
15 16 17 18 16 18 19 19 22 24 24 22 20 17 16 16 19 16 14 15 16 13 16 18 17 15 11 16 10 9 13 7 5 7 13 17 13 17 16 17 12 12 12 12 14
12 13 15 16 18 18 19 18 20 25 27 26 25 22 19 18 20 21 17 16 16 16 16 14 20 16 13 18 11 13 21 11 8 9 8 14 10 6 13 17 11 11 10 12 13
16 16 16 14 15 16 20 18 18 20 27 30 28 26 24 23 22 22 23 20 17 17 17 14 22 22 18 13 12 16 18 15 14 16 12 11 10 7 8 16 13 9 13 11 10
16 16 14 15 14 15 18 19 18 17 19 26 31 29 28 28 25 23 23 25 23 20 16 17 18 30 24 17 16 22 24 18 16 20 9 12 7 11 12 14 12 8 11 12 9
17 16 16 16 16 17 18 19 20 19 18 19 25 31 31 30 28 26 25 25 26 26 20 17 23 25 33 25 20 30 27 20 19 19 15 12 11 11 8 10 9 8 7 11 11
19 17 18 17 18 18 18 19 22 20 19 16 17 25 33 31 27 27 28 27 26 28 27 27 27 27 26 31 26 21 20 17 18 15 15 14 9 14 13 11 7 6 7 8 12
22 22 20 20 19 18 18 20 21 20 19 17 15 19 26 32 32 32 32 31 29 28 32 32 28 27 24 27 30 24 19 10 16 20 12 10 15 13 9 6 5 4 7 8 10
25 25 23 20 18 18 20 21 21 20 19 19 17 16 22 27 33 34 32 32 32 31 32 33 31 28 27 26 26 27 16 18 14 12 13 12 13 10 8 2 4 4 5 10 9
24 23 23 18 18 19 20 21 21 19 18 19 19 17 16 23 31 35 35 33 32 34 33 32 33 33 30 25 20 20 23 21 24 16 16 17 14 15 9 1 3 1 5 8 11
25 25 21 20 20 19 20 21 20 19 18 18 17 16 17 23 32 33 31 36 34 33 33 33 32 33 31 23 23 23 25 27 24 20 22 22 22 19 14 4 1 4 5 6 11
25 25 26 23 21 20 20 21 21 19 16 16 15 16 15 22 29 31 30 32 35 34 33 33 29 30 35 31 27 26 30 27 25 28 25 23 20 22 20 9 4 6 5 5 7
28 27 26 22 21 19 20 21 20 18 16 15 15 15 15 19 27 31 31 32 33 37 36 32 29 33 34 37 33 31 29 30 33 34 30 28 27 23 17 12 9 7 4 5 5
28 26 27 25 24 21 19 19 19 17 17 16 16 19 17 18 21 27 31 33 35 35 38 36 34 35 35 36 38 34 30 33 39 34 33 29 29 24 18 16 12 10 11 7 5
30 24 26 25 23 20 20 18 18 16 18 18 18 19 19 20 21 23 27 33 36 37 38 38 37 37 37 33 38 34 36 40 42 35 38 35 35 28 27 24 14 13 11 13 6
31 25 21 22 22 19 19 19 17 17 19 17 16 16 16 19 23 25 26 29 35 37 38 38 40 39 39 37 37 40 42 46 42 39 43 37 29 26 23 22 19 11 11 12 12
28 24 21 20 19 18 18 18 17 19 18 16 12 16 19 21 22 24 28 28 30 34 38 38 37 40 41 42 40 43 47 48 50 47 47 40 36 30 25 24 23 15 17 12 13
24 22 22 20 18 17 19 20 16 20 18 15 12 19 19 18 21 23 25 27 31 31 35 39 40 40 43 45 44 41 49 52 56 51 47 43 47 17 21 22 19 18 20 14 14
26 26 23 21 17 16 20 21 16 19 17 18 15 20 19 18 17 20 23 26 30 32 33 34 35 40 42 46 45 46 47 51 54 54 46 44 44 29 28 27 24 18 21 14 6
30 28 23 24 18 19 21 21 19 19 20 19 20 21 20 18 15 20 22 23 28 29 31 32 30 37 42 46 45 46 47 51 57 57 53 47 43 33 27 25 25 21 16 16 14
33 27 22 19 16 21 22 24 18 18 18 20 23 24 23 22 19 21 25 24 24 27 29 32 31 33 39 45 49 48 47 50 55 59 56 53 46 41 33 26 25 22 14 18 18
17 18 18 17 15 19 24 22 16 15 17 22 26 27 27 29 27 24 32 32 31 29 30 33 34 36 41 46 48 43 48 48 54 59 59 56 50 44 41 35 25 23 21 24 23
18 18 14 14 13 17 21 23 19 15 17 21 26 25 24 25 28 29 33 35 37 34 32 33 33 36 40 43 47 42 45 50 51 56 58 57 52 45 43 40 35 32 29 29 26
20 24 19 13 11 17 19 22 23 18 19 21 23 23 23 25 29 30 33 35 36 34 31 28 33 32 41 39 43 44 42 49 49 51 52 54 50 43 39 36 36 36 34 32 26
19 18 18 16 15 18 23 23 21 19 20 19 21 25 25 27 30 30 32 35 36 34 32 25 28 28 33 44 39 42 42 46 52 46 49 46 43 46 39 36 35 36 35 33 32
20 20 18 18 19 20 23 21 20 18 20 20 21 22 23 21 22 26 32 36 34 35 32 33 33 31 27 37 42 40 45 45 43 49 51 42 45 46 40 36 42 43 42 41 31
18 19 22 21 21 18 18 21 20 20 20 21 21 20 21 21 23 25 28 30 34 37 37 36 35 35 33 27 38 44 39 41 45 43 49 48 48 47 46 43 45 44 41 36 31
Wind_Direction
277 278 278 290 285 283 284 287 276 270 259 252 249 242 231 229 233 240 240 235 235 223 223 194 198 191 193 181 146 186 185 156 109 121 106 94 93 77 83 106 104 101 95 98 104
279 280 281 282 292 294 288 281 269 263 262 256 244 241 239 225 225 231 228 234 238 220 222 207 194 178 192 174 174 233 164 148 159 94 69 81 82 97 97 106 90 101 110 104 105
304 298 292 297 299 297 297 293 270 262 257 256 253 242 235 236 224 226 222 230 233 231 223 214 185 183 197 200 234 196 175 204 200 151 103 76 88 77 115 100 102 113 119 118 116
301 300 297 298 298 300 305 303 291 274 261 255 251 249 241 234 230 224 221 222 224 232 224 214 191 185 193 196 183 183 188 199 148 171 194 132 142 136 138 115 104 117 126 123 123
301 304 294 301 307 307 307 304 302 291 276 260 251 243 241 237 232 225 221 220 220 226 223 213 207 200 195 199 202 207 195 183 175 172 161 168 116 99 131 126 106 112 123 124 133
308 295 290 298 307 315 306 303 296 289 281 277 256 244 238 236 233 229 221 218 216 220 222 213 222 205 200 198 198 190 199 181 191 177 176 173 138 117 107 122 108 124 126 129 135
311 312 298 298 303 305 298 294 295 289 285 285 269 247 239 236 231 233 226 220 217 215 215 216 216 221 205 201 207 211 211 198 219 209 184 177 145 118 90 66 78 128 150 142 135
312 314 312 303 303 302 300 295 293 291 283 282 274 251 246 232 229 226 228 222 217 212 214 221 222 225 208 208 208 207 223 246 238 230 183 181 152 142 98 37 47 118 161 170 141
307 308 308 305 300 298 296 294 288 291 285 285 274 265 251 237 228 230 226 224 220 220 214 217 220 224 226 213 210 210 206 237 239 201 196 189 176 154 119 354 353 106 158 178 175
310 310 306 303 298 292 291 289 287 290 282 279 277 272 256 241 224 228 228 222 220 219 219 213 216 219 224 214 214 202 208 223 214 213 205 185 181 179 159 103 311 358 146 193 178
303 306 300 300 300 289 287 282 277 281 280 278 273 268 258 232 219 218 226 226 219 219 219 218 213 217 220 215 212 197 198 208 206 217 217 200 178 173 182 195 301 272 170 182 190
296 293 291 293 293 289 284 277 274 276 275 273 267 257 251 232 221 221 220 226 222 221 218 218 212 211 214 212 208 205 197 205 226 230 226 214 186 194 192 189 183 234 158 184 177
293 293 288 284 283 282 280 276 268 270 263 268 257 251 239 235 227 223 220 223 225 222 220 215 213 214 213 212 206 208 201 200 211 221 225 219 214 203 195 185 180 218 151 173 155
301 291 278 276 274 273 269 267 264 255 261 259 250 245 239 236 235 231 224 221 224 223 224 217 216 219 215 210 210 202 199 200 208 217 219 226 222 210 205 207 184 194 220 198 173
299 296 279 272 266 266 265 256 255 249 252 252 249 248 245 236 230 233 229 224 224 218 222 220 217 217 219 213 209 200 202 202 204 217 221 218 234 219 210 198 176 204 219 211 180
304 291 275 270 266 268 257 252 249 243 240 241 248 250 244 240 235 228 226 224 225 221 219 220 219 218 216 215 212 198 204 206 212 214 222 228 230 217 212 203 203 193 221 200 199
302 287 275 268 267 266 255 249 249 244 245 249 245 243 243 237 234 233 227 223 222 225 218 215 216 217 215 214 214 204 205 206 215 219 224 223 232 224 232 229 227 198 198 182 200
310 298 282 266 264 260 250 246 243 247 249 247 236 226 238 246 245 232 231 228 220 221 223 218 212 212 215 214 216 210 210 210 214 219 227 226 228 212 234 226 208 216 202 175 192
317 306 287 270 263 254 248 248 244 253 255 262 252 231 236 240 240 246 237 224 231 223 222 222 215 212 209 214 214 214 212 214 216 220 224 226 233 216 222 218 219 207 198 179 146
306 297 285 265 259 251 245 244 241 247 251 251 255 249 242 239 246 243 247 249 229 229 227 223 215 213 209 206 209 211 212 213 217 221 223 225 228 212 214 203 189 184 177 167 170
309 291 274 257 248 250 247 246 242 244 251 249 250 250 250 246 244 235 237 240 244 229 223 224 215 209 208 204 202 208 213 215 216 221 223 226 227 225 219 206 206 194 195 202 180
318 303 287 270 254 255 255 255 250 244 244 248 250 250 251 249 247 233 230 239 244 243 230 223 212 198 203 206 204 208 211 215 216 220 222 227 223 226 228 224 215 209 224 229 226
329 323 303 280 264 260 265 267 259 252 247 256 256 256 250 251 245 241 232 237 245 255 249 234 221 201 200 206 207 209 214 214 218 220 222 225 223 224 232 234 235 235 232 239 244
329 318 307 275 251 255 257 261 266 258 259 259 248 252 250 245 247 246 235 237 241 246 248 253 239 215 204 201 208 214 216 217 217 222 221 224 221 223 227 224 220 217 217 225 224
306 310 309 284 258 245 252 256 261 269 272 262 254 256 253 250 244 241 244 243 241 243 242 232 230 230 220 208 207 210 215 219 219 220 224 220 212 212 219 209 209 218 226 224 226
300 304 293 272 260 250 261 267 275 272 259 253 256 253 253 250 246 242 239 241 243 245 237 231 231 228 232 222 214 208 215 217 222 223 224 217 209 211 217 211 208 214 218 223 230
299 298 292 273 264 253 257 265 268 267 270 269 264 262 258 255 252 250 246 244 246 244 241 237 235 233 234 223 220 216 212 216 221 221 219 216 209 212 215 217 215 215 218 225 226